DL4PY-13 Weather Reports


time (UTC)temp
F
wind
direction
speed
knots
gust
knots
rain 1hr
in
rain 24hr
in
rain mn
in
humidity
%
barometer
mb
20260502151858 77 203 6.1 15.6 0.00 0.00 0.00 45 1017.0
20260502151358 77 186 1.7 15.6 0.00 0.00 0.00 47 1017.0
20260502150848 77 236 3.5 15.6 0.00 0.00 0.00 45 1017.1
20260502150357 77 232 0.9 15.6 0.00 0.00 0.00 46 1017.1
20260502130357 77 159 4.3 15.6 0.00 0.00 0.00 42 1018.5
20260502123358 78 250 1.7 13.9 0.00 0.00 0.00 39 1018.9
20260502122858 77 196 2.6 13.9 0.00 0.00 0.00 39 1019.0
20260502122347 76 242 3.5 13.9 0.00 0.00 0.00 39 1019.0
20260502121858 76 158 5.2 13.9 0.00 0.00 0.00 41 1019.1
20260502121358 76 103 0.9 13.9 0.00 0.00 0.00 40 1019.0
20260502120848 76 119 10.4 13.9 0.00 0.00 0.00 38 1019.2
20260502120357 77 150 1.7 12.2 0.00 0.00 0.00 40 1019.3
20260502115348 76 141 3.5 12.2 0.00 0.00 0.00 42 1019.5
20260502114357 76 150 5.2 11.3 0.00 0.00 0.00 40 1019.6
20260502113846 76 208 3.5 11.3 0.00 0.00 0.00 41 1019.6
20260502113357 76 173 2.6 11.3 0.00 0.00 0.00 41 1019.7
20260502112857 76 295 1.7 11.3 0.00 0.00 0.00 40 1019.8
20260502112346 75 118 6.1 11.3 0.00 0.00 0.00 40 1019.9
20260502111356 76 181 5.2 11.3 0.00 0.00 0.00 40 1020.0
20260502110847 76 188 0.9 11.3 0.00 0.00 0.00 40 1019.9
20260502105347 75 223 2.6 11.3 0.00 0.00 0.00 40 1019.9
20260502104900 75 225 3.5 11.3 0.00 0.00 0.00 42 1020.0
20260502104358 75 137 4.3 11.3 0.00 0.00 0.00 40 1020.0
20260502103847 74 247 0.0 11.3 0.00 0.00 0.00 41 1020.2
20260502103357 74 234 5.2 11.3 0.00 0.00 0.00 42 1020.3
20260502102858 74 229 5.2 11.3 0.00 0.00 0.00 41 1020.4
20260502102347 74 241 3.5 11.3 0.00 0.00 0.00 43 1020.5
20260502100847 73 171 1.7 9.6 0.00 0.00 0.00 43 1020.6
20260502100357 73 137 4.3 9.6 0.00 0.00 0.00 42 1020.6
20260502090848 71 153 0.0 7.8 0.00 0.00 0.00 41 1021.3
20260502090356 70 218 1.7 7.8 0.00 0.00 0.00 43 1021.5